Volver al catálogo

FENGYUN 1C DEB

LostSSO
NORAD 37598·DEBRIS·🇨🇳 China

Lanzado May 10, 1999 desde Taiyuan Satellite Launch Center

Loading…

Próximos Pases (próximas 24 horas)

TLE

ObsoletoSource: Space-Track

Época: Jan 4, 2024, 01:19 UTC

1 37598U 99025EKS 24004.05533657  .00003955  00000-0  16420-2 0  9998
2 37598  98.8468  84.7440 0015961 162.3138 319.3413 14.26982209776175

Sigue FENGYUN 1C DEB en tiempo real con AllMySat

Download on the App Store